• In Deutschland
  • Länderverzeichnis
  • Für 7 Tage
  • Wassertemperatur
  • Satellitenkarten
  • Wetterkarte
  • Widgets
  • user-avatar
    Anmelden

    Stündliche Wetter Waiblingen

    Heute, 21 Februar, Mittwoch

    Zeit Temperatur Niederschläge Wind Luftdruck Luftfeuchtigkeit
    00:00 -2°C° 0 mm 1 m/S 734 mmHg 86%
    01:00 -2°C° 0 mm 1 m/S 734 mmHg 88%
    02:00 -4°C° 0 mm 2 m/S 734 mmHg 89%
    03:00 -4°C° 0 mm 2 m/S 734 mmHg 89%
    04:00 -4°C° 0 mm 2 m/S 734 mmHg 90%
    05:00 -4°C° 0 mm 2 m/S 734 mmHg 90%
    06:00 -4°C° 0 mm 2 m/S 734 mmHg 90%
    07:00 -4°C° 0 mm 2 m/S 735 mmHg 91%
    08:00 -4°C° 0 mm 2 m/S 735 mmHg 85%
    09:00 -4°C° 0 mm 3 m/S 735 mmHg 80%
    10:00 -2°C° 0 mm 3 m/S 735 mmHg 74%
    11:00 -1°C° 0 mm 3 m/S 734 mmHg 69%
    12:00 -1°C° 0 mm 4 m/S 734 mmHg 65%
    13:00 0°C° 0 mm 4 m/S 735 mmHg 62%
    14:00 0°C° 0 mm 4 m/S 734 mmHg 61%
    15:00 0°C° 0 mm 4 m/S 734 mmHg 61%
    16:00 0°C° 0 mm 4 m/S 734 mmHg 60%
    17:00 -1°C° 0 mm 4 m/S 734 mmHg 65%
    18:00 -1°C° 0 mm 3 m/S 734 mmHg 70%
    19:00 -4°C° 0 mm 3 m/S 734 mmHg 75%
    20:00 -4°C° 0 mm 3 m/S 734 mmHg 75%
    21:00 -4°C° 0 mm 3 m/S 734 mmHg 76%
    22:00 -5°C° 0 mm 4 m/S 734 mmHg 76%
    23:00 -5°C° 0 mm 4 m/S 734 mmHg 77%

    Morgen, 22 Februar, Donnerstag

    Zeit Temperatur Niederschläge Wind Luftdruck Luftfeuchtigkeit
    00:00 -5°C° 0 mm 4 m/S 734 mmHg 78%
    01:00 -5°C° 0 mm 4 m/S 734 mmHg 78%
    02:00 -5°C° 0 mm 4 m/S 734 mmHg 78%
    03:00 -5°C° 0 mm 4 m/S 733 mmHg 79%
    04:00 -7°C° 0 mm 4 m/S 733 mmHg 79%
    05:00 -7°C° 0 mm 4 m/S 733 mmHg 79%
    06:00 -7°C° 0 mm 4 m/S 733 mmHg 78%
    07:00 -7°C° 0 mm 4 m/S 733 mmHg 78%
    08:00 -6°C° 0 mm 5 m/S 733 mmHg 74%
    09:00 -5°C° 0 mm 6 m/S 733 mmHg 69%
    10:00 -4°C° 0 mm 6 m/S 733 mmHg 64%
    11:00 -4°C° 0 mm 6 m/S 733 mmHg 61%
    12:00 -3°C° 0 mm 6 m/S 733 mmHg 57%
    13:00 -2°C° 0 mm 6 m/S 732 mmHg 53%
    14:00 -2°C° 0 mm 6 m/S 732 mmHg 53%
    15:00 -2°C° 0 mm 6 m/S 732 mmHg 52%
    16:00 -2°C° 0 mm 6 m/S 732 mmHg 52%
    17:00 -2°C° 0 mm 6 m/S 732 mmHg 54%
    18:00 -2°C° 0 mm 5 m/S 732 mmHg 56%
    19:00 -4°C° 0 mm 5 m/S 732 mmHg 58%
    20:00 -4°C° 0 mm 5 m/S 732 mmHg 60%
    21:00 -5°C° 0 mm 5 m/S 732 mmHg 61%
    22:00 -5°C° 0 mm 5 m/S 732 mmHg 62%
    23:00 -5°C° 0 mm 5 m/S 732 mmHg 63%

    übermorgen, 23 Februar, Freitag

    Zeit Temperatur Niederschläge Wind Luftdruck Luftfeuchtigkeit
    00:00 -6°C° 0 mm 5 m/S 732 mmHg 64%
    01:00 -6°C° 0 mm 5 m/S 732 mmHg 65%
    02:00 -6°C° 0 mm 5 m/S 732 mmHg 65%
    03:00 -6°C° 0 mm 5 m/S 732 mmHg 66%
    04:00 -5°C° 0 mm 4 m/S 731 mmHg 66%
    05:00 -6°C° 0 mm 5 m/S 731 mmHg 66%
    06:00 -6°C° 0 mm 5 m/S 731 mmHg 66%
    07:00 -6°C° 0 mm 5 m/S 731 mmHg 66%
    08:00 -6°C° 0 mm 5 m/S 732 mmHg 63%
    09:00 -5°C° 0 mm 5 m/S 732 mmHg 61%
    10:00 -4°C° 0 mm 5 m/S 732 mmHg 59%
    11:00 -2°C° 0 mm 5 m/S 732 mmHg 58%
    12:00 -2°C° 0 mm 6 m/S 732 mmHg 56%
    13:00 -1°C° 0 mm 6 m/S 731 mmHg 55%
    14:00 -1°C° 0 mm 6 m/S 731 mmHg 56%
    15:00 -1°C° 0 mm 6 m/S 731 mmHg 56%
    16:00 0°C° 0 mm 5 m/S 731 mmHg 57%
    17:00 0°C° 0 mm 5 m/S 731 mmHg 60%
    18:00 -1°C° 0 mm 5 m/S 731 mmHg 63%
    19:00 -2°C° 0 mm 5 m/S 731 mmHg 66%
    20:00 -2°C° 0 mm 5 m/S 731 mmHg 67%
    21:00 -4°C° 0 mm 5 m/S 732 mmHg 68%
    22:00 -4°C° 0 mm 5 m/S 732 mmHg 69%
    23:00 -4°C° 0 mm 5 m/S 732 mmHg 70%

    24 Februar, Samstag

    Zeit Temperatur Niederschläge Wind Luftdruck Luftfeuchtigkeit
    00:00 -4°C° 0 mm 5 m/S 732 mmHg 71%
    01:00 -4°C° 0 mm 5 m/S 732 mmHg 72%
    02:00 -4°C° 0 mm 5 m/S 732 mmHg 72%
    03:00 -5°C° 0 mm 5 m/S 732 mmHg 71%
    04:00 -5°C° 0 mm 5 m/S 732 mmHg 71%
    05:00 -5°C° 0 mm 5 m/S 732 mmHg 70%
    06:00 -5°C° 0 mm 5 m/S 732 mmHg 69%
    07:00 -5°C° 0 mm 5 m/S 732 mmHg 68%
    08:00 -4°C° 0 mm 5 m/S 732 mmHg 63%
    09:00 -4°C° 0 mm 6 m/S 733 mmHg 59%
    10:00 -3°C° 0 mm 6 m/S 733 mmHg 55%
    11:00 -2°C° 0 mm 7 m/S 733 mmHg 52%
    12:00 -1°C° 0 mm 7 m/S 732 mmHg 49%
    13:00 0°C° 0 mm 7 m/S 732 mmHg 45%
    14:00 0°C° 0 mm 7 m/S 732 mmHg 45%
    15:00 0°C° 0 mm 7 m/S 732 mmHg 45%
    16:00 0°C° 0 mm 7 m/S 732 mmHg 45%
    17:00 -1°C° 0 mm 7 m/S 732 mmHg 48%
    18:00 -3°C° 0 mm 7 m/S 733 mmHg 51%
    19:00 -4°C° 0 mm 6 m/S 733 mmHg 54%
    20:00 -6°C° 0 mm 7 m/S 733 mmHg 51%
    21:00 -6°C° 0 mm 7 m/S 734 mmHg 48%
    22:00 -7°C° 0 mm 7 m/S 734 mmHg 46%
    23:00 -7°C° 0 mm 7 m/S 734 mmHg 45%

    25 Februar, Sonntag

    Zeit Temperatur Niederschläge Wind Luftdruck Luftfeuchtigkeit
    00:00 -8°C° 0 mm 7 m/S 734 mmHg 44%
    01:00 -8°C° 0 mm 6 m/S 734 mmHg 44%
    02:00 -8°C° 0 mm 6 m/S 734 mmHg 44%
    03:00 -9°C° 0 mm 6 m/S 734 mmHg 44%
    04:00 -9°C° 0 mm 6 m/S 734 mmHg 45%
    05:00 -9°C° 0 mm 6 m/S 734 mmHg 46%
    06:00 -10°C° 0 mm 6 m/S 735 mmHg 47%
    07:00 -10°C° 0 mm 6 m/S 735 mmHg 48%
    08:00 -10°C° 0 mm 6 m/S 735 mmHg 47%
    09:00 -9°C° 0 mm 6 m/S 735 mmHg 45%
    10:00 -9°C° 0 mm 7 m/S 735 mmHg 44%
    11:00 -8°C° 0 mm 7 m/S 735 mmHg 40%
    12:00 -6°C° 0 mm 6 m/S 735 mmHg 37%
    13:00 -5°C° 0 mm 6 m/S 735 mmHg 34%
    14:00 -5°C° 0 mm 6 m/S 735 mmHg 33%
    15:00 -5°C° 0 mm 6 m/S 735 mmHg 32%
    16:00 -5°C° 0 mm 6 m/S 735 mmHg 30%
    17:00 -6°C° 0 mm 6 m/S 735 mmHg 33%
    18:00 -7°C° 0 mm 5 m/S 735 mmHg 35%
    19:00 -8°C° 0 mm 5 m/S 735 mmHg 37%
    20:00 -8°C° 0 mm 5 m/S 735 mmHg 38%
    21:00 -8°C° 0 mm 5 m/S 736 mmHg 40%
    22:00 -10°C° 0 mm 5 m/S 736 mmHg 41%
    23:00 -10°C° 0 mm 5 m/S 736 mmHg 42%

    26 Februar, Montag

    Zeit Temperatur Niederschläge Wind Luftdruck Luftfeuchtigkeit
    00:00 -10°C° 0 mm 5 m/S 736 mmHg 43%
    01:00 -11°C° 0 mm 5 m/S 736 mmHg 45%
    02:00 -11°C° 0 mm 5 m/S 736 mmHg 45%
    03:00 -11°C° 0 mm 5 m/S 735 mmHg 46%
    04:00 -12°C° 0 mm 5 m/S 735 mmHg 47%
    05:00 -12°C° 0 mm 5 m/S 735 mmHg 47%
    06:00 -12°C° 0 mm 5 m/S 735 mmHg 47%
    07:00 -12°C° 0 mm 5 m/S 736 mmHg 48%
    08:00 -12°C° 0 mm 5 m/S 736 mmHg 45%
    09:00 -11°C° 0 mm 5 m/S 736 mmHg 42%
    10:00 -11°C° 0 mm 5 m/S 736 mmHg 40%
    11:00 -10°C° 0 mm 5 m/S 735 mmHg 37%
    12:00 -8°C° 0 mm 5 m/S 735 mmHg 34%
    13:00 -7°C° 0 mm 5 m/S 735 mmHg 32%
    14:00 -7°C° 0 mm 5 m/S 735 mmHg 31%
    15:00 -7°C° 0 mm 5 m/S 734 mmHg 30%
    16:00 -7°C° 0 mm 5 m/S 734 mmHg 30%
    17:00 -8°C° 0 mm 4 m/S 734 mmHg 32%
    18:00 -8°C° 0 mm 4 m/S 734 mmHg 35%
    19:00 -8°C° 0 mm 3 m/S 734 mmHg 38%
    20:00 -8°C° 0 mm 3 m/S 734 mmHg 39%
    21:00 -10°C° 0 mm 4 m/S 734 mmHg 41%
    22:00 -10°C° 0 mm 4 m/S 734 mmHg 42%
    23:00 -10°C° 0 mm 4 m/S 734 mmHg 44%
    Mehr zeigen